DW4240 Weather Reports


Display with metric or nautical units.
time (UTC)temp
F
wind
direction
speed
MPH
gust
MPH
rain 1hr
in
rain 24hr
in
rain mn
in
humidity
%
barometer
mb
20260507130027 47 0 0.0 3.0 0.00 0.19 0.14 90 1015.1
20260507124530 48 0 0.0 2.0 0.00 0.19 0.14 91 1014.9
20260507123033 47 0 0.0 2.0 0.00 0.19 0.14 92 1014.8
20260507121537 47 0 0.0 2.0 0.00 0.19 0.14 92 1014.5
20260507120029 47 0 0.0 3.0 0.00 0.19 0.14 92 1014.4
20260507114529 47 0 0.0 2.0 0.00 0.19 0.14 93 1014.4
20260507113034 47 0 1.0 4.0 0.00 0.19 0.14 93 1014.3
20260507111528 47 0 1.0 3.0 0.00 0.19 0.14 93 1014.3
20260507110029 47 0 0.0 2.0 0.00 0.19 0.14 95 1014.2
20260507104527 46 0 0.0 5.0 0.00 0.19 0.14 95 1014.1
20260507103027 46 42 0.0 2.0 0.00 0.19 0.14 95 1014.0
20260507101535 46 0 0.0 2.0 0.00 0.19 0.14 95 1013.9
20260507100034 46 0 0.0 3.0 0.00 0.18 0.13 95 1013.9
20260507094530 46 0 0.0 4.0 0.00 0.18 0.13 96 1013.7
20260507093036 46 42 0.0 5.0 0.00 0.18 0.13 96 1013.4
20260507091529 45 40 0.0 4.0 0.00 0.18 0.13 96 1013.3
20260507090033 45 40 0.0 5.0 0.01 0.18 0.13 96 1013.1
20260507084528 45 40 0.0 4.0 0.01 0.19 0.13 96 1012.9
20260507083037 45 0 0.0 2.0 0.00 0.18 0.12 96 1012.9
20260507081530 45 0 0.0 3.0 0.00 0.18 0.12 97 1012.7
20260507080028 45 38 0.0 3.0 0.00 0.18 0.11 96 1012.7
20260507074530 45 0 0.0 2.0 0.00 0.20 0.11 96 1012.3
20260507073028 45 0 0.0 2.0 0.00 0.20 0.11 96 1012.2
20260507071535 45 0 0.0 2.0 0.00 0.20 0.11 96 1012.1
20260507070031 45 38 0.0 3.0 0.00 0.20 0.11 96 1011.8
20260507064529 45 38 0.0 2.0 0.00 0.25 0.11 96 1011.8
20260507063029 45 0 0.0 2.0 0.00 0.25 0.11 96 1011.5
20260507061530 45 38 0.0 2.0 0.00 0.25 0.11 96 1011.3
20260507060028 45 0 0.0 2.0 0.00 0.25 0.11 96 1011.0
20260507054528 45 0 0.0 2.0 0.00 0.38 0.11 96 1010.8
20260507053029 45 0 0.0 2.0 0.00 0.38 0.11 96 1010.5
20260507051528 45 0 0.0 3.0 0.00 0.38 0.11 96 1010.3
20260507050029 44 0 0.0 2.0 0.00 0.37 0.11 96 1010.1
20260507044526 45 0 0.0 3.0 0.00 0.47 0.11 96 1009.9
20260507043034 45 38 1.0 3.0 0.00 0.47 0.11 96 1009.9
20260507041529 45 44 1.0 5.0 0.00 0.47 0.11 96 1009.8
20260507040027 45 31 0.0 5.0 0.00 0.47 0.11 96 1009.7
20260507034530 45 34 1.0 6.0 0.01 0.55 0.11 96 1009.7
20260507033028 46 30 1.0 3.0 0.00 0.55 0.10 96 1009.6
20260507031528 46 0 0.0 6.0 0.00 0.55 0.10 96 1009.5
20260507030032 46 43 1.0 5.0 0.01 0.55 0.10 96 1009.5
20260507024529 46 34 1.0 6.0 0.00 0.68 0.09 96 1009.3
20260507023030 47 0 0.0 2.0 0.01 0.68 0.09 96 1009.1
20260507021528 47 0 0.0 5.0 0.03 0.68 0.09 96 1008.9
20260507020033 48 42 0.0 3.0 0.03 0.67 0.08 96 1008.7
20260507014528 48 0 0.0 2.0 0.03 0.85 0.08 96 1008.5
20260507013034 48 0 0.0 3.0 0.03 0.85 0.07 96 1008.5
20260507011537 48 0 1.0 3.0 0.03 0.82 0.05 96 1008.2
20260507010030 48 0 0.0 2.0 0.03 0.82 0.05 96 1008.3
20260507004527 49 0 0.0 2.0 0.03 0.90 0.04 96 1008.1
20260507003029 49 0 0.0 2.0 0.02 0.89 0.03 96 1008.0
20260507001533 49 0 0.0 2.0 0.00 0.87 0.01 96 1007.9
20260507000028 49 42 0.0 3.0 0.00 0.87 0.01 96 1007.9
20260506234540 49 0 0.0 4.0 0.00 0.90 0.01 96 1007.9
20260506233028 49 0 0.0 4.0 0.00 0.90 0.01 96 1007.9
20260506231533 49 34 0.0 2.0 0.00 0.90 0.01 96 1007.9
20260506230030 49 34 1.0 3.0 0.01 0.90 0.01 96 1007.7
20260506224531 49 34 1.0 3.0 0.00 0.89 0.00 96 1007.5
20260506223027 50 47 1.0 6.0 0.00 0.89 0.00 96 1007.4
20260506221529 50 47 0.0 2.0 0.01 0.89 0.00 96 1007.5
20260506220028 50 41 1.0 5.0 0.00 0.88 0.00 96 1007.3
20260506214529 50 42 0.0 3.0 0.00 0.88 0.88 96 1007.4
20260506213030 50 0 0.0 5.0 0.00 0.88 0.88 96 1007.4
20260506211529 51 0 0.0 3.0 0.00 0.88 0.88 96 1007.2
20260506210030 51 0 0.0 3.0 0.00 0.88 0.88 96 1007.0
20260506204530 51 0 0.0 3.0 0.00 0.88 0.88 96 1006.8
20260506203034 52 42 0.0 2.0 0.00 0.88 0.88 96 1006.7
20260506201530 52 0 0.0 3.0 0.00 0.88 0.88 96 1006.7
20260506200031 52 0 0.0 4.0 0.00 0.88 0.88 96 1006.6
20260506194530 52 0 0.0 0.0 0.00 0.88 0.88 96 1006.6
20260506193028 52 41 0.0 3.0 0.00 0.88 0.88 96 1006.4
20260506191529 52 0 0.0 2.0 0.00 0.88 0.88 96 1006.3
20260506190037 52 0 0.0 0.0 0.00 0.88 0.88 96 1006.0
20260506184529 52 0 0.0 0.0 0.00 0.88 0.88 96 1006.0
20260506183030 52 0 0.0 4.0 0.00 0.88 0.88 96 1005.8
20260506181530 52 0 0.0 2.0 0.00 0.88 0.88 96 1005.6
20260506180031 52 0 0.0 2.0 0.00 0.88 0.88 96 1005.6
20260506174530 52 0 0.0 2.0 0.00 0.88 0.88 96 1005.7
20260506173037 52 41 0.0 2.0 0.00 0.88 0.88 96 1005.5
20260506171602 52 0 0.0 1.0 0.00 0.88 0.88 96 1005.5
20260506170029 52 0 0.0 3.0 0.00 0.88 0.88 96 1005.5
20260506164528 52 0 0.0 2.0 0.00 0.88 0.88 96 1005.5
20260506163045 52 0 0.0 0.0 0.00 0.88 0.88 96 1005.4
20260506161530 52 0 0.0 2.0 0.02 0.88 0.88 96 1005.4
20260506160028 52 0 0.0 2.0 0.03 0.88 0.88 96 1005.3
20260506154535 52 0 0.0 2.0 0.02 0.87 0.87 96 1005.3
20260506153032 52 0 0.0 2.0 0.02 0.87 0.87 96 1005.4
20260506151537 52 0 0.0 3.0 0.00 0.85 0.85 96 1005.5
20260506150028 52 0 0.0 2.0 0.00 0.85 0.85 96 1005.5
20260506144529 52 0 0.0 2.0 0.01 0.85 0.85 96 1005.5
20260506143028 51 0 0.0 2.0 0.01 0.85 0.85 96 1005.5
20260506141530 52 0 0.0 2.0 0.01 0.85 0.85 96 1005.5
20260506140033 51 0 0.0 3.0 0.00 0.84 0.84 96 1005.6
20260506134528 51 0 0.0 2.0 0.00 0.83 0.83 96 1005.5
20260506133029 51 0 0.0 2.0 0.00 0.83 0.83 96 1005.6
20260506131535 51 39 0.0 2.0 0.00 0.83 0.83 96 1005.5